Total_Precipitation_Accumulation
0.51 0.59 0.66 0.71 0.82 0.85 0.83 0.82 0.73 0.69 0.68 0.67 0.64 0.66 0.61 0.55 0.56 0.56 0.55 0.59 0.63 0.70 0.73 0.71 0.71 0.81 0.88 0.81 0.79 0.78 0.82 0.89 0.91 0.90 1.04 1.08 0.96 0.77 0.70 0.74 0.74 0.75 0.63
0.46 0.56 0.60 0.64 0.73 0.83 0.80 0.81 0.82 0.81 0.76 0.71 0.68 0.70 0.62 0.55 0.55 0.53 0.51 0.55 0.65 0.76 0.88 1.00 1.01 0.94 0.90 0.86 0.86 0.88 0.94 1.07 1.09 1.04 1.07 1.12 1.05 0.92 0.82 0.73 0.63 0.62 0.67
0.45 0.55 0.62 0.59 0.62 0.72 0.79 0.80 0.84 0.88 0.90 0.89 0.82 0.76 0.71 0.67 0.65 0.60 0.58 0.59 0.60 0.64 0.76 1.00 1.19 1.33 1.24 1.04 0.92 0.87 0.93 1.04 1.18 1.14 1.12 1.25 1.23 1.11 0.97 0.78 0.63 0.61 0.56
0.49 0.55 0.62 0.64 0.67 0.73 0.77 0.81 0.85 0.85 0.90 0.95 0.94 0.90 0.84 0.77 0.71 0.69 0.74 0.73 0.70 0.68 0.72 0.80 0.90 1.09 1.26 1.29 1.15 1.00 0.97 1.05 1.16 1.19 1.27 1.49 1.51 1.36 1.11 0.90 0.78 0.67 0.59
0.66 0.76 0.81 0.79 0.81 0.85 0.88 0.88 0.94 0.94 0.94 1.05 1.09 1.07 1.02 0.95 0.81 0.82 0.90 0.83 0.84 0.80 0.76 0.75 0.70 0.75 0.87 1.02 1.10 1.18 1.16 1.11 1.17 1.24 1.45 1.85 1.86 1.60 1.22 1.01 0.94 0.88 0.74
0.97 1.08 1.09 1.13 1.14 1.12 1.10 1.04 1.10 1.18 1.29 1.30 1.27 1.23 1.18 1.01 0.98 0.92 0.93 0.93 0.96 0.96 0.92 0.85 0.75 0.66 0.65 0.72 0.81 0.94 1.09 1.13 1.13 1.20 1.39 1.68 1.84 1.73 1.46 1.25 1.03 0.90 0.81
0.94 1.07 1.16 1.20 1.22 1.26 1.27 1.28 1.28 1.33 1.37 1.39 1.41 1.39 1.34 1.32 1.21 0.98 0.92 0.92 0.96 1.03 1.08 1.07 0.83 0.62 0.65 0.65 0.70 0.72 0.76 0.86 0.97 1.05 1.20 1.40 1.69 1.80 1.64 1.26 1.10 1.00 0.83
0.99 1.09 1.24 1.29 1.34 1.36 1.32 1.26 1.24 1.24 1.22 1.20 1.19 1.16 1.21 1.18 1.10 0.92 0.84 0.80 0.87 0.91 0.93 0.92 0.86 0.71 0.66 0.66 0.68 0.65 0.62 0.61 0.65 0.74 0.86 1.08 1.35 1.67 1.82 1.58 1.38 1.23 1.02
1.12 1.24 1.34 1.41 1.49 1.44 1.32 1.25 1.17 1.14 1.06 0.99 0.96 0.98 1.02 1.06 1.02 0.85 0.79 0.73 0.76 0.75 0.74 0.76 0.79 0.71 0.64 0.53 0.54 0.56 0.55 0.54 0.52 0.56 0.64 0.80 1.05 1.35 1.68 1.80 1.52 1.19 1.04
1.09 1.17 1.24 1.31 1.44 1.47 1.39 1.33 1.28 1.26 1.16 1.10 1.05 1.02 1.01 1.08 1.12 0.93 0.83 0.76 0.78 0.78 0.87 0.88 0.83 0.72 0.62 0.47 0.47 0.52 0.51 0.48 0.51 0.52 0.52 0.57 0.71 0.95 1.29 1.48 1.48 1.20 0.97
0.90 0.88 0.96 1.10 1.22 1.27 1.30 1.29 1.34 1.33 1.28 1.15 1.01 0.95 0.94 1.01 1.10 0.96 0.82 0.75 0.79 0.86 0.92 0.99 0.94 0.78 0.57 0.44 0.40 0.41 0.38 0.42 0.48 0.51 0.52 0.56 0.69 0.86 1.02 1.24 1.37 1.28 1.03
0.93 0.94 0.99 1.06 1.05 1.03 1.09 1.12 1.19 1.25 1.23 1.13 0.98 0.85 0.82 0.79 0.77 0.78 0.65 0.58 0.62 0.73 0.83 0.96 0.98 0.81 0.60 0.45 0.36 0.31 0.29 0.29 0.35 0.41 0.43 0.46 0.53 0.66 0.84 1.10 1.31 1.33 1.18
1.04 1.06 1.09 1.10 1.09 1.09 1.08 1.08 1.08 1.05 0.98 0.90 0.81 0.81 0.81 0.76 0.68 0.58 0.48 0.40 0.43 0.56 0.69 0.92 1.02 0.89 0.75 0.60 0.49 0.43 0.36 0.30 0.33 0.35 0.34 0.34 0.39 0.50 0.72 1.05 1.40 1.53 1.42
1.03 0.95 0.87 0.86 0.87 0.90 0.95 0.95 0.96 0.93 0.88 0.83 0.78 0.79 0.77 0.72 0.64 0.59 0.53 0.43 0.42 0.54 0.61 0.76 0.89 0.94 0.85 0.79 0.68 0.55 0.45 0.40 0.38 0.39 0.39 0.42 0.51 0.62 0.75 0.89 1.21 1.45 1.47
1.07 0.99 0.92 0.87 0.85 0.84 0.87 0.91 0.87 0.85 0.79 0.72 0.70 0.76 0.75 0.72 0.65 0.56 0.58 0.58 0.57 0.62 0.62 0.73 0.87 0.98 1.00 0.96 0.92 0.81 0.69 0.62 0.55 0.52 0.58 0.59 0.64 0.69 0.72 0.81 1.02 1.22 1.22
1.02 0.92 0.88 0.87 0.87 0.86 0.83 0.85 0.86 0.74 0.72 0.67 0.68 0.70 0.72 0.65 0.54 0.43 0.43 0.45 0.44 0.44 0.47 0.63 0.79 0.95 1.08 1.11 1.14 1.08 0.96 0.86 0.77 0.74 0.75 0.73 0.71 0.75 0.76 0.79 0.92 1.07 1.07
0.97 0.93 0.88 0.85 0.88 0.87 0.84 0.83 0.88 0.80 0.62 0.55 0.54 0.52 0.51 0.44 0.36 0.32 0.31 0.32 0.30 0.27 0.30 0.48 0.63 0.78 0.95 1.09 1.12 1.08 0.99 0.97 0.97 0.96 0.95 0.91 0.85 0.84 0.87 0.85 0.87 0.98 1.05
0.91 0.95 0.92 0.87 0.84 0.80 0.78 0.78 0.78 0.80 0.73 0.61 0.49 0.41 0.37 0.32 0.33 0.33 0.30 0.29 0.27 0.24 0.27 0.42 0.55 0.68 0.83 1.00 1.05 1.05 1.07 1.10 1.10 1.06 1.07 1.08 1.04 0.98 0.97 0.95 0.91 0.92 1.01
0.67 0.66 0.64 0.65 0.67 0.67 0.64 0.61 0.59 0.60 0.63 0.68 0.58 0.40 0.35 0.31 0.37 0.43 0.34 0.33 0.35 0.34 0.34 0.40 0.47 0.59 0.76 0.94 1.07 1.12 1.15 1.14 1.13 1.14 1.14 1.15 1.17 1.11 1.01 1.00 1.04 1.03 1.01
0.44 0.48 0.42 0.37 0.39 0.44 0.47 0.48 0.48 0.51 0.58 0.67 0.62 0.45 0.38 0.39 0.52 0.62 0.49 0.49 0.51 0.48 0.49 0.53 0.55 0.62 0.79 0.96 1.09 1.18 1.23 1.20 1.16 1.17 1.18 1.18 1.18 1.16 1.06 1.05 1.13 1.11 0.99
0.30 0.29 0.27 0.21 0.25 0.35 0.41 0.42 0.42 0.49 0.56 0.65 0.60 0.42 0.35 0.43 0.67 0.77 0.71 0.70 0.68 0.65 0.64 0.61 0.56 0.60 0.76 0.92 1.03 1.13 1.23 1.21 1.15 1.13 1.19 1.24 1.17 1.12 1.07 1.08 1.12 1.17 1.13
0.24 0.23 0.22 0.20 0.27 0.32 0.32 0.38 0.48 0.57 0.62 0.67 0.61 0.47 0.44 0.56 0.76 0.82 0.77 0.76 0.75 0.72 0.68 0.65 0.62 0.64 0.75 0.89 0.96 1.06 1.20 1.21 1.18 1.16 1.22 1.30 1.25 1.15 1.11 1.10 1.10 1.18 1.23
0.25 0.24 0.22 0.24 0.30 0.30 0.32 0.41 0.54 0.61 0.63 0.65 0.63 0.62 0.63 0.70 0.76 0.79 0.77 0.73 0.71 0.73 0.75 0.77 0.78 0.77 0.83 0.93 0.98 1.06 1.20 1.20 1.16 1.17 1.22 1.25 1.23 1.18 1.16 1.12 1.10 1.16 1.21
0.21 0.23 0.22 0.22 0.24 0.28 0.34 0.38 0.44 0.49 0.51 0.54 0.56 0.58 0.60 0.64 0.68 0.69 0.70 0.69 0.71 0.73 0.76 0.83 0.85 0.86 0.89 0.93 0.95 0.96 1.06 1.05 0.98 0.96 1.01 1.07 1.09 1.09 1.09 1.07 1.03 1.05 1.10
0.22 0.24 0.24 0.24 0.23 0.25 0.30 0.36 0.42 0.46 0.51 0.51 0.52 0.55 0.58 0.57 0.61 0.66 0.69 0.71 0.70 0.72 0.71 0.72 0.76 0.80 0.78 0.74 0.77 0.80 0.84 0.79 0.74 0.74 0.84 0.94 0.95 0.94 0.94 0.92 0.92 0.97 1.05
0.22 0.26 0.29 0.32 0.32 0.30 0.33 0.40 0.46 0.47 0.49 0.49 0.52 0.55 0.61 0.63 0.63 0.66 0.68 0.67 0.66 0.68 0.65 0.67 0.69 0.65 0.64 0.63 0.59 0.60 0.58 0.55 0.56 0.60 0.65 0.74 0.81 0.81 0.84 0.86 0.84 0.89 0.95